METEOR 2-5 DEB

Satellite information

Favourite Embed

Satellite Type and Status

DEBRISIN ORBIT

Key statistics

Satellite METEOR 2-5 DEB at a glance.

Uptime

16740

Days in orbit

Revolutions

≈ 14.4

Per day

Orbit

LEO

Low Earth Orbit

Inclination

81.2

Latest

Satellite identification and parameters

Extended collection of information and parameters for METEOR 2-5 DEB.

Object identification

Identified? True

Debris? True

Object name: METEOR 2-5 DEB

International designator: 1979-095W

Object number (NORAD): 35255

Object ID (CCSDS): 35255

Country: COMMONWEALTH OF INDEPENDENT STATES (CIS)

Current information (Y/N): Y

RCS size: SMALL

Orbital parameters

Period: 99.89 minutes

Inclination: 81.2047 deg

SMA: 7131.418 km

Apoapsis: 763.189 km

Periapsis: 743.377 km

RAAN: 45.876 deg

Eccentricy: 0.0013891

Argument of periapsis: 164.4426 deg

Mean anomaly: 195.7192 deg

Mean motion: 14.41580549 rev/day

Mean motion (dot): 0.00008255 rev/day2

B* drag term: 0.0025304361 1/REarth

Two-line elements (TLE)

Creation date: Aug. 29, 2025, 2:15 a.m.

Reference frame: TEME

Reference center: EARTH

Epoch: Aug. 28, 2025, 5:29 p.m. UTC

TLE line 0: 0 METEOR 2-5 DEB

TLE line 1: 1 35255U 79095W 25240.72857471 .00008255 00000-0 25304-2 0 9990

TLE line 2: 2 35255 81.2047 45.8760 0013891 164.4426 195.7192 14.41580549632278

Live tracking on map

Real-time ground track for satellite METEOR 2-5 DEB.

In-orbit conjunctions

A list of the most updated potential collisions computed for object METEOR 2-5 DEB.

Target Orbit TCA Probability of collision Miss distance Type
COSMOS 158 LEO 2025-08-08 12:57:00 0.0002936238 215.0 (m) PAYLOAD
COSMOS 1818 LEO 2025-01-24 16:26:15 0.0001681694 595.0 (m) PAYLOAD
CZ-6A DEB SSO 2024-08-22 07:38:47 0.0002123689 44.0 (m) DEBRIS
ITAMSAT SSO 2024-07-28 18:06:46 0.0001239682 421.0 (m) PAYLOAD

Associated space launch

Second generation soviet meteorological satellite

METEOR 2-5 DEB was lifted into orbit during the mission ‘Vostok 8A92M | Meteor-2 5’, on board a Vostok 8A92M space rocket.

The launch took place on Oct. 31, 1979, 9:25 a.m. from 43/4 (43R).

For more information about the launch, click the button.

Launch to space Vostok 8A92M | Meteor-2 5
Vostok 8A92M | Meteor-2 5

Agency: N/A

Status: Launch Successful

Launch date: Oct. 31, 1979, 9:25 a.m. UTC

Rocket: Vostok 8A92M

Launch pad: 43/4 (43R)

Location: Plesetsk Cosmodrome, Russian Federation

...

Latest news about this satellite

There are no fresh news available about this satellite. Check back as we update our databases every day.


Newsletter sign-up

Weekly statistics, charts and insights to help you stay on top of the space industry.